Pagina principale
METAR-TAF:

METAR-TAF

Aeroporti :

Ermelo, Sudafrica

latitudine: 26-29-44S, longitudine: 29-58-47E, altezza: 1737 m

Osservazione

Il bollettino è stato emesso 6 ore e 33 minuti fa, alle 08:54 UTC
Vento 9 kt da ovest
Temperature 18°C
Umidità 28%
Pressione 1032 hPa
Visibilità 10 km o più
nessuna nube inferiore a 1500 m e nessun cumulonembo

METAR: FAEO 310854Z 26009KT CAVOK 18/M01 Q1032

Ora: 17:27 (15:27 UTC)


TAF: mancante

Osservazioni e previsioni meteorologiche di più di 4000 aeroporti (messaggi METAR e TAF).

Le stazioni disponibili sono rappresentate dai dischi gialli e rossi sulla carta.

Puntare il mouse per vedere il nome della stazione.

Clicca sopra per visualizzare le osservazioni e previsioni meteorologiche.

Per cambiare la mappa : fare clic sui pulsanti verdi con una croce nera per ingrandire, il pulsante verde con un trattino per diminuire, o sulla freccia verde per le mappe adiacenti.


METAR-TAF: